FW9948 Weather Reports


time (UTC)temp
C
wind
direction
speed
KPH
gust
KPH
rain 1hr
cm
rain 24hr
cm
rain mn
cm
humidity
%
barometer
mb
20260503014009 28 111 9.7 20.9 0.00 0.00 0.00 88 1015.1
20260503013510 28 136 8.0 17.7 0.00 0.00 0.00 88 1015.2
20260503013032 28 150 9.7 19.3 0.00 0.00 0.00 88 1015.1
20260503012511 28 136 11.3 20.9 0.00 0.00 0.00 88 1014.9
20260503012015 28 116 9.7 20.9 0.00 0.00 0.00 88 1015.0
20260503011533 28 153 8.0 17.7 0.00 0.00 0.00 88 1014.9
20260503011010 28 138 8.0 19.3 0.00 0.00 0.00 88 1014.9
20260503010512 28 107 6.4 19.3 0.00 0.00 0.00 88 1014.7
20260503010032 28 120 9.7 19.3 0.00 0.00 0.00 88 1014.6
20260503005511 28 144 4.8 17.7 0.00 0.00 0.00 88 1014.5
20260503005013 28 136 6.4 16.1 0.00 0.00 0.00 88 1014.4
20260503004604 28 105 6.4 17.7 0.00 0.00 0.00 88 1014.3
20260503004010 28 125 8.0 17.7 0.00 0.00 0.00 88 1014.3
20260503003513 28 124 6.4 17.7 0.00 0.00 0.00 87 1014.2
20260503003033 28 145 8.0 17.7 0.00 0.00 0.00 87 1014.1
20260503002510 28 130 9.7 19.3 0.00 0.00 0.00 87 1014.0
20260503002011 28 119 8.0 19.3 0.00 0.00 0.00 87 1013.9
20260503001528 28 165 9.7 19.3 0.00 0.00 0.00 87 1014.0
20260503001012 28 88 8.0 19.3 0.00 0.00 0.00 87 1014.0
20260503000512 28 129 8.0 20.9 0.00 0.00 0.00 86 1014.0
20260503000042 28 146 9.7 20.9 0.00 0.00 0.00 85 1013.9
20260502235510 28 126 8.0 20.9 0.00 0.00 0.00 85 1013.9
20260502235011 28 136 9.7 22.5 0.00 0.00 0.00 85 1013.8
20260502234548 28 134 9.7 22.5 0.00 0.00 0.00 84 1013.7
20260502234012 28 135 8.0 22.5 0.00 0.00 0.00 84 1013.9
20260502233512 29 158 11.3 22.5 0.00 0.00 0.00 83 1013.8
20260502233031 29 147 11.3 20.9 0.00 0.00 0.00 83 1013.9
20260502232511 29 130 11.3 20.9 0.00 0.00 0.00 83 1013.7
20260502232011 29 120 12.9 20.9 0.00 0.00 0.00 82 1013.7
20260502231532 30 157 9.7 20.9 0.00 0.00 0.00 82 1013.6
20260502231013 30 129 8.0 20.9 0.00 0.00 0.00 82 1013.4
20260502230511 30 155 8.0 20.9 0.00 0.00 0.00 82 1013.4
20260502230029 30 136 11.3 20.9 0.00 0.00 0.00 82 1013.3
20260502225511 30 146 8.0 19.3 0.00 0.00 0.00 82 1013.4
20260502225009 30 145 6.4 19.3 0.00 0.00 0.00 82 1013.3
20260502224532 30 126 11.3 25.7 0.00 0.00 0.00 82 1013.3
20260502224017 30 135 12.9 25.7 0.00 0.00 0.00 82 1013.2
20260502223512 30 173 11.3 22.5 0.00 0.00 0.00 81 1013.1
20260502223039 30 161 6.4 17.7 0.00 0.00 0.00 82 1013.2
20260502222511 30 122 8.0 19.3 0.00 0.00 0.00 81 1013.1
20260502222010 31 181 8.0 19.3 0.00 0.00 0.00 80 1013.0
20260502221530 31 146 6.4 19.3 0.00 0.00 0.00 80 1012.9
20260502221015 31 126 8.0 22.5 0.00 0.00 0.00 80 1012.9
20260502220511 31 121 8.0 22.5 0.00 0.00 0.00 80 1012.9
20260502220031 31 142 8.0 19.3 0.00 0.00 0.00 80 1012.9
20260502215510 31 139 8.0 20.9 0.00 0.00 0.00 80 1012.9
20260502215011 31 150 11.3 22.5 0.00 0.00 0.00 79 1012.9
20260502214528 31 128 8.0 22.5 0.00 0.00 0.00 79 1012.9
20260502214016 31 124 9.7 24.1 0.00 0.00 0.00 78 1012.8
20260502213511 31 167 12.9 24.1 0.00 0.00 0.00 78 1012.8
20260502213030 32 136 11.3 22.5 0.00 0.00 0.00 77 1012.7
20260502212516 32 151 8.0 24.1 0.00 0.00 0.00 78 1012.7
20260502212011 32 178 11.3 24.1 0.00 0.00 0.00 78 1012.8
20260502211534 32 140 11.3 20.9 0.00 0.00 0.00 78 1012.8
20260502211010 32 217 9.7 24.1 0.00 0.00 0.00 78 1012.9
20260502210513 31 128 11.3 27.4 0.00 0.00 0.00 78 1012.9
20260502210028 31 161 9.7 27.4 0.00 0.00 0.00 77 1012.8
20260502205513 32 127 12.9 24.1 0.00 0.00 0.00 77 1012.8
20260502205009 32 143 9.7 22.5 0.00 0.00 0.00 76 1012.8
20260502204537 32 153 9.7 25.7 0.00 0.00 0.00 77 1012.7
20260502204008 32 132 12.9 25.7 0.00 0.00 0.00 77 1012.6
20260502203510 32 57 11.3 27.4 0.00 0.00 0.00 77 1012.7
20260502203055 32 110 12.9 27.4 0.00 0.00 0.00 77 1012.6
20260502202510 32 130 12.9 30.6 0.00 0.00 0.00 78 1012.5
20260502202010 32 123 12.9 30.6 0.00 0.00 0.00 77 1012.4
20260502201531 32 126 16.1 32.2 0.00 0.00 0.00 76 1012.4
20260502201009 32 138 14.5 32.2 0.00 0.00 0.00 76 1012.3
20260502200509 32 131 14.5 29.0 0.00 0.00 0.00 76 1012.4
20260502200030 32 115 14.5 25.7 0.00 0.00 0.00 75 1012.5
20260502195511 32 170 12.9 29.0 0.00 0.00 0.00 76 1012.4
20260502195010 32 119 19.3 32.2 0.00 0.00 0.00 74 1012.5
20260502194529 32 126 14.5 32.2 0.00 0.00 0.00 75 1012.5
20260502194009 32 135 16.1 30.6 0.00 0.00 0.00 75 1012.4
20260502193510 32 163 17.7 29.0 0.00 0.00 0.00 75 1012.5
20260502193054 32 116 12.9 27.4 0.00 0.00 0.00 76 1012.6
20260502192514 32 181 16.1 27.4 0.00 0.00 0.00 75 1012.5
20260502192013 32 121 12.9 25.7 0.00 0.00 0.00 74 1012.7
20260502191527 33 153 12.9 30.6 0.00 0.00 0.00 75 1012.8
20260502191010 33 138 16.1 30.6 0.00 0.00 0.00 75 1012.9
20260502190508 33 117 16.1 30.6 0.00 0.00 0.00 74 1012.9
20260502190031 33 141 14.5 29.0 0.00 0.00 0.00 74 1013.0
20260502185512 33 159 17.7 29.0 0.00 0.00 0.00 73 1013.1
20260502185010 33 153 9.7 25.7 0.00 0.00 0.00 74 1013.2
20260502184530 33 137 14.5 25.7 0.00 0.00 0.00 73 1013.3
20260502184009 33 159 12.9 25.7 0.00 0.00 0.00 73 1013.4
20260502183510 33 138 8.0 24.1 0.00 0.00 0.00 73 1013.5
20260502183030 33 123 12.9 24.1 0.00 0.00 0.00 75 1013.5
20260502182511 33 112 12.9 24.1 0.00 0.00 0.00 74 1013.5
20260502182012 33 150 12.9 27.4 0.00 0.00 0.00 74 1013.6
20260502181530 33 159 12.9 27.4 0.00 0.00 0.00 74 1013.6
20260502181009 33 132 11.3 29.0 0.00 0.00 0.00 74 1013.7
20260502180510 33 115 12.9 29.0 0.00 0.00 0.00 75 1013.7
20260502170514 32 141 12.9 24.1 0.00 0.00 0.00 75 1014.4
20260502164014 32 148 9.7 25.7 0.00 0.00 0.00 77 1014.5
20260502163511 32 132 14.5 25.7 0.00 0.00 0.00 77 1014.5
20260502163040 32 161 12.9 24.1 0.00 0.00 0.00 78 1014.5
20260502162549 32 132 11.3 27.4 0.00 0.00 0.00 79 1014.6
20260502162016 31 43 12.9 27.4 0.00 0.00 0.00 79 1014.4
20260502161539 31 86 12.9 27.4 0.00 0.00 0.00 80 1014.5
20260502161014 31 114 14.5 25.7 0.00 0.00 0.00 79 1014.5
20260502160513 32 139 12.9 22.5 0.00 0.00 0.00 78 1014.4
20260502152013 31 94 9.7 25.7 0.00 0.00 0.00 79 1014.9
20260502151530 31 119 12.9 25.7 0.00 0.00 0.00 79 1014.8
20260502151011 31 108 11.3 20.9 0.00 0.00 0.00 80 1014.8
20260502150511 31 140 12.9 20.9 0.00 0.00 0.00 80 1014.9
20260502130510 28 129 11.3 22.5 0.00 0.00 0.00 86 1014.2
20260502123513 28 82 8.0 19.3 0.00 0.00 0.00 88 1014.0
20260502123050 27 115 11.3 20.9 0.00 0.00 0.00 88 1014.1
20260502122510 27 129 9.7 20.9 0.00 0.00 0.00 89 1014.0
20260502122014 27 86 11.3 20.9 0.00 0.00 0.00 89 1013.8
20260502121530 27 108 9.7 20.9 0.00 0.00 0.00 90 1013.8
20260502121013 27 142 9.7 19.3 0.00 0.00 0.00 90 1013.8
20260502120516 27 112 9.7 19.3 0.00 0.00 0.00 90 1013.7
20260502115509 27 85 6.4 17.7 0.00 0.00 0.00 91 1013.7
20260502115011 26 83 8.0 16.1 0.00 0.00 0.00 92 1013.6
20260502114529 26 107 3.2 11.3 0.00 0.00 0.00 92 1013.6
20260502114011 26 84 4.8 12.9 0.00 0.00 0.00 92 1013.6
20260502113510 26 101 4.8 12.9 0.00 0.00 0.00 92 1013.6
20260502113031 26 71 4.8 11.3 0.00 0.00 0.00 93 1013.5
20260502112511 26 95 4.8 11.3 0.00 0.00 0.00 93 1013.4
20260502112010 26 107 3.2 11.3 0.00 0.00 0.00 93 1013.5
20260502111530 26 101 3.2 11.3 0.00 0.00 0.00 93 1013.5
20260502111012 26 101 3.2 11.3 0.00 0.00 0.00 93 1013.3
20260502110517 26 91 1.6 6.4 0.00 0.00 0.00 93 1013.4
20260502110032 26 91 3.2 6.4 0.00 0.00 0.00 93 1013.3
20260502105518 26 91 1.6 6.4 0.00 0.00 0.00 93 1013.4
20260502105013 26 91 1.6 6.4 0.00 0.00 0.00 93 1013.3
20260502104533 26 91 1.6 6.4 0.00 0.00 0.00 93 1013.4
20260502104012 26 91 3.2 8.0 0.00 0.00 0.00 93 1013.2
20260502103512 26 0 1.6 9.7 0.00 0.00 0.00 93 1013.2
20260502103030 26 91 3.2 11.3 0.00 0.00 0.00 93 1013.2
20260502102512 25 94 3.2 11.3 0.00 0.00 0.00 93 1013.1
20260502102013 25 105 3.2 9.7 0.00 0.00 0.00 93 1013.1
20260502101531 25 102 1.6 9.7 0.00 0.00 0.00 93 1013.0
20260502101012 26 83 1.6 6.4 0.00 0.00 0.00 93 1013.0
20260502100512 26 83 0.0 6.4 0.00 0.00 0.00 93 1012.9
20260502091532 26 87 1.6 4.8 0.00 0.00 0.00 93 1012.5
20260502091011 26 87 0.0 4.8 0.00 0.00 0.00 93 1012.6
20260502090512 26 0 0.0 4.8 0.00 0.00 0.00 93 1012.5
20260502071528 26 67 1.6 6.4 0.00 0.00 0.00 91 1012.7
20260502071009 26 88 1.6 9.7 0.00 0.00 0.00 91 1012.8
20260502070517 26 86 3.2 11.3 0.00 0.00 0.00 91 1012.9
20260502070031 26 90 4.8 11.3 0.00 0.00 0.00 91 1012.9
20260502065511 26 132 3.2 16.1 0.00 0.00 0.00 91 1012.9
20260502065013 26 74 3.2 16.1 0.00 0.00 0.00 91 1012.9
20260502064530 26 106 3.2 14.5 0.00 0.00 0.00 91 1012.9
20260502064010 26 117 1.6 11.3 0.00 0.00 0.00 91 1012.9
20260502063511 26 117 1.6 16.1 0.00 0.00 0.00 90 1013.0
20260502063033 26 95 4.8 16.1 0.00 0.00 0.00 90 1013.1
20260502062518 26 151 4.8 16.1 0.00 0.00 0.00 90 1013.1
20260502062012 26 105 8.0 16.1 0.00 0.00 0.00 90 1013.0
20260502061531 26 92 6.4 16.1 0.00 0.00 0.00 90 1013.1
20260502061009 26 134 4.8 14.5 0.00 0.00 0.00 90 1013.1
20260502060514 26 85 6.4 14.5 0.00 0.00 0.00 90 1013.1
20260502060033 27 103 6.4 12.9 0.00 0.00 0.00 90 1013.2
20260502055510 26 126 4.8 16.1 0.00 0.00 0.00 90 1013.2
20260502055010 27 57 4.8 16.1 0.00 0.00 0.00 89 1013.3
20260502054535 27 97 4.8 17.7 0.00 0.00 0.00 90 1013.4
20260502054011 27 121 6.4 17.7 0.00 0.00 0.00 90 1013.5
20260502053513 27 86 9.7 17.7 0.00 0.00 0.00 89 1013.5
20260502053032 27 132 4.8 16.1 0.00 0.00 0.00 89 1013.6
20260502052513 27 74 6.4 16.1 0.00 0.00 0.00 89 1013.6
20260502052011 27 59 6.4 16.1 0.00 0.00 0.00 89 1013.6
20260502051536 27 113 6.4 16.1 0.00 0.00 0.00 89 1013.8
20260502051010 27 95 4.8 16.1 0.00 0.00 0.00 89 1013.8
20260502050511 27 85 4.8 16.1 0.00 0.00 0.00 89 1013.9
20260502050040 27 82 8.0 17.7 0.00 0.00 0.00 89 1013.9
20260502045515 27 116 8.0 17.7 0.00 0.00 0.00 89 1014.0
20260502045013 27 114 6.4 16.1 0.00 0.00 0.00 89 1014.0
20260502044531 27 104 8.0 19.3 0.00 0.00 0.00 89 1014.0
20260502044012 27 123 9.7 19.3 0.00 0.00 0.00 89 1014.1
20260502043511 27 129 9.7 19.3 0.00 0.00 0.00 89 1014.1
20260502043034 27 112 11.3 19.3 0.00 0.00 0.00 89 1014.2
20260502042510 27 124 11.3 17.7 0.00 0.00 0.00 89 1014.3
20260502042011 27 94 6.4 14.5 0.00 0.00 0.00 89 1014.2
20260502041529 27 107 6.4 14.5 0.00 0.00 0.00 89 1014.3
20260502041011 27 121 8.0 14.5 0.00 0.00 0.00 89 1014.2
20260502040511 27 86 1.6 14.5 0.00 0.00 0.00 88 1014.2
20260502040028 27 88 6.4 14.5 0.00 0.00 0.00 88 1014.3
20260502035510 27 88 4.8 16.1 0.00 0.00 0.00 88 1014.2
20260502035010 27 90 4.8 16.1 0.00 0.00 0.00 88 1014.2
20260502034528 27 156 4.8 16.1 0.00 0.00 0.00 88 1014.2
20260502034013 27 81 4.8 14.5 0.00 0.00 0.00 88 1014.2
20260502033511 27 90 4.8 16.1 0.00 0.00 0.00 88 1014.1
20260502033031 27 114 6.4 17.7 0.00 0.00 0.00 88 1014.2
20260502032511 27 129 8.0 17.7 0.00 0.00 0.00 88 1014.1
20260502032010 27 90 8.0 12.9 0.00 0.00 0.00 88 1014.0
20260502031530 27 71 4.8 16.1 0.00 0.00 0.00 88 1014.1
20260502031011 27 123 4.8 16.1 0.00 0.00 0.00 88 1014.0
20260502030510 27 96 3.2 11.3 0.00 0.00 0.00 88 1014.0
20260502030032 27 130 3.2 14.5 0.00 0.00 0.00 88 1013.9
20260502025519 27 99 4.8 17.7 0.00 0.00 0.00 87 1013.9
20260502025009 27 113 4.8 17.7 0.00 0.00 0.00 87 1013.8
20260502024534 27 94 4.8 14.5 0.00 0.00 0.00 87 1013.7
20260502024011 27 87 8.0 14.5 0.00 0.00 0.00 87 1013.7
20260502023510 27 85 6.4 12.9 0.00 0.00 0.00 87 1013.7
20260502023031 27 94 4.8 16.1 0.00 0.00 0.00 87 1013.6
20260502022511 27 81 6.4 16.1 0.00 0.00 0.00 87 1013.5
20260502022015 27 82 6.4 16.1 0.00 0.00 0.00 87 1013.4
20260502021531 27 98 4.8 16.1 0.00 0.00 0.00 87 1013.3
20260502021010 27 81 6.4 16.1 0.00 0.00 0.00 87 1013.2
20260502020509 27 146 6.4 16.1 0.00 0.00 0.00 86 1013.2
20260502020030 27 117 8.0 16.1 0.00 0.00 0.00 86 1013.1
20260502015511 27 103 9.7 16.1 0.00 0.00 0.00 86 1013.1
20260502015012 27 92 8.0 22.5 0.00 0.00 0.00 86 1013.1
20260502014535 27 111 6.4 22.5 0.00 0.00 0.00 86 1013.1